Weather History for KOGD - October, 2012

Change the Weather History Date:

Thursday, October 4, 2012

  Actual Average Record
Temperature  
Mean Temperature 52 °F -  
Max Temperature 66 °F 70 °F 85 °F (1963)
Min Temperature 39 °F 40 °F 30 °F (1973)
Degree Days  
Heating Degree Days 12    
Growing Degree Days 2 (Base 50)    
Moisture  
Dew Point 20 °F    
Average Humidity 31    
Maximum Humidity 53    
Minimum Humidity 12    
Precipitation  
Precipitation 0.00 in - - ()
Sea Level Pressure  
Sea Level Pressure 30.03 in    
Wind  
Wind Speed 5 mph (WNW)    
Max Wind Speed 9 mph    
Max Gust Speed -    
Visibility 10 miles    
Events      
Averages and records for this station are not official NWS values.
T = Trace of Precipitation, MM = Missing Value Source: NWS Daily Summary

Daily Weather History Graph

Daily Weather History Graph

Search for Another Location

Airport or City:

Trip Planner

Search our weather history database for the weather conditions in past years. The results will help you decide how hot, cold, wet, or windy it might be!

Date:

Astronomy

Oct. 04, 2012 Rise Set
Actual Time 7:28 AM MDT 7:03 PM MDT
Civil Twilight 7:00 AM MDT 7:31 PM MDT
Nautical Twilight 6:28 AM MDT 8:03 PM MDT
Astronomical Twilight 5:56 AM MDT 8:35 PM MDT
Moon 9:39 PM MDT (10/4) 11:51 AM MDT (10/4)
Length of Visible Light 12h 30m
Length of Day
11h 35m
Waning Gibbous, 81% of the Moon is Illuminated
Oct 4
Waning Gibbous
Oct 8
Last Quarter
Oct 15
New
Oct 21
First Quarter
Oct 29
Full

Hourly Weather History & Observations

Time (MDT) Temp. Windchill Dew Point Humidity Pressure Visibility Wind Dir Wind Speed Gust Speed Precip Events Conditions
12:53 AM 44.1 °F 39.0 °F 21.9 °F 42% 30.06 in 10.0 mi WNW 9.2 mph - N/A   Clear
1:53 AM 43.0 °F 40.3 °F 21.9 °F 43% 30.07 in 10.0 mi West 4.6 mph - N/A   Clear
2:53 AM 42.1 °F 38.4 °F 21.9 °F 45% 30.07 in 10.0 mi NW 5.8 mph - N/A   Clear
3:53 AM 41.0 °F 38.0 °F 23.0 °F 49% 30.07 in 10.0 mi WSW 4.6 mph - N/A   Clear
4:53 AM 39.0 °F 34.0 °F 23.0 °F 53% 30.07 in 10.0 mi NNW 6.9 mph - N/A   Clear
5:53 AM 39.9 °F 35.8 °F 24.1 °F 53% 30.08 in 10.0 mi NW 5.8 mph - N/A   Clear
6:53 AM 41.0 °F 39.0 °F 19.9 °F 43% 30.09 in 10.0 mi SW 3.5 mph - N/A   Clear
7:53 AM 44.1 °F 40.8 °F 19.0 °F 37% 30.09 in 10.0 mi South 5.8 mph - N/A   Clear
8:53 AM 48.0 °F - 19.9 °F 33% 30.09 in 10.0 mi South 4.6 mph - N/A   Clear
9:53 AM 51.1 °F - 21.0 °F 31% 30.10 in 10.0 mi Calm Calm - N/A   Clear
10:53 AM 55.0 °F - 23.0 °F 29% 30.09 in 10.0 mi Calm Calm - N/A   Clear
11:53 AM 57.0 °F - 23.0 °F 27% 30.09 in 10.0 mi Calm Calm - N/A   Clear
12:53 PM 60.1 °F - 23.0 °F 24% 30.07 in 10.0 mi Calm Calm - N/A   Clear
1:53 PM 63.0 °F - 23.0 °F 22% 30.04 in 10.0 mi Variable 4.6 mph - N/A   Clear
2:53 PM 64.0 °F - 25.0 °F 23% 30.01 in 10.0 mi Calm Calm - N/A   Clear
4:53 PM 64.9 °F - 10.9 °F 12% 29.99 in 10.0 mi WSW 3.5 mph - N/A   Clear
5:53 PM 66.0 °F - 10.9 °F 12% 29.96 in 10.0 mi Calm Calm - N/A   Clear
6:53 PM 62.1 °F - 14.0 °F 15% 29.94 in 10.0 mi NW 3.5 mph - N/A   Clear
7:53 PM 55.9 °F - 18.0 °F 23% 29.96 in 10.0 mi NW 5.8 mph - N/A   Clear
8:53 PM 57.0 °F - 24.1 °F 28% 29.96 in 10.0 mi North 6.9 mph - N/A   Clear
9:53 PM 57.0 °F - 18.0 °F 22% 29.96 in 10.0 mi North 5.8 mph - N/A   Clear
10:53 PM 55.9 °F - 23.0 °F 28% 29.96 in 10.0 mi North 6.9 mph - N/A   Clear
11:53 PM 53.1 °F - 19.9 °F 27% 29.96 in 10.0 mi NNW 6.9 mph - N/A   Clear